Regional Weather Roundup
Issued by NWS Upton, NY

Current Version | Previous Version | Graphics & Text | Print | Product List | Glossary Off
Versions: 1 2 3 4 5 6 7 8 9 10 11 12 13 14 15 16 17 18 19 20 21 22 23 24 25 26 27 28 29 30 31 32 33 34 35 36 37 38 39 40 41 42 43 44 45 46 47 48 49 50

000
ASUS41 KOKX 221208
RWROKX

REGIONAL WEATHER ROUNDUP
NATIONAL WEATHER SERVICE NEW YORK NY
700 AM EST WED FEB 22 2017

NOTE: "FAIR" INDICATES FEW OR NO CLOUDS BELOW 12,000 FEET WITH NO
SIGNIFICANT WEATHER AND/OR OBSTRUCTIONS TO VISIBILITY.

NYZ071-072-176-178-NJZ106-104-221300-
NEW YORK CITY METRO AREA

CITY           SKY/WX    TMP DP  RH WIND       PRES   REMARKS
Central Park   MOCLDY    44  35  70 VRB3      30.07S
Wall St Helipt NOT AVBL
LaGuardia APRT CLOUDY    45  35  68 S7        30.05F
Kennedy INTL   CLOUDY    41  38  89 SW7       30.07F
Breezy Point     N/A     39 N/A N/A SW5         N/A
Newark/Liberty MOCLDY    42  35  76 S5        30.05F
Teterboro      CLOUDY    43  35  73 S5        30.05S
$$

NYZ177-179-078>081-221300-
LONG ISLAND NEW YORK

CITY           SKY/WX    TMP DP  RH WIND       PRES   REMARKS
Jones Beach      N/A     41 N/A N/A SW5         N/A
Matinecock PT  NOT AVBL
Farmingdale    CLOUDY    42  37  82 SW6       30.06F
MacArthur/ISP  CLOUDY    42  39  89 SW6       30.05F
Shirley        PTCLDY    41  39  93 SW6       30.07S
Westhampton    CLOUDY    41  38  89 SW7       30.08S
Southampton    NOT AVBL
Bridgehampton  NOT AVBL
East Hampton   DRIZZLE   42  37  84 SW3       30.07R
Montauk          N/A     43  39  86 SW7       30.07S
$$

NYZ052-065-067-221300-
HUDSON VALLEY

CITY           SKY/WX    TMP DP  RH WIND       PRES   REMARKS
White Plains   DRIZZLE   42  34  73 CALM      30.03S
Newburgh       MOCLDY    41  34  75 CALM      30.03S
Montgomery     CLOUDY    39  34  82 S6        30.01S WCI  35
Poughkeepsie   CLOUDY    38  32  79 SE3       30.03R
Albany         CLOUDY    39  30  70 S5        30.03R
$$

NJZ001-105-106-008-010-013-015-019>022-104-221300-
NEW JERSEY

CITY           SKY/WX    TMP DP  RH WIND       PRES   REMARKS
Newark/Liberty MOCLDY    42  35  76 S5        30.05F
Teterboro      CLOUDY    43  35  73 S5        30.05S
Caldwell       CLOUDY    42  34  73 CALM      30.05S
Somerville     CLOUDY    37  32  82 MISG      30.03F
Linden         NOT AVBL
Sussex         CLOUDY    41  34  76 CALM      30.02S
Andover          N/A     40  33  76 CALM      30.02F
Trenton        CLOUDY    41  36  82 S3        30.06S
Millville      CLOUDY    40  39  97 CALM      30.07S
Atlantic City  CLOUDY    41  37  86 CALM      30.08R
Wrightstown    CLOUDY    39  36  90 CALM      30.04F
Toms River     LGT RAIN  37  35  92 CALM      30.08S
Belmar         CLOUDY    40  36  86 SW5       30.07F
$$

PAZ047>061-062-071-221300-
EASTERN PENNSYLVANIA

CITY           SKY/WX    TMP DP  RH WIND       PRES   REMARKS
Philadelphia   CLOUDY    42  37  82 SE5       30.07F
Allentown      CLOUDY    41  34  76 CALM      30.03F
Scranton       CLOUDY    42  35  76 CALM      29.99F
$$

CTZ002-004>006-009-010-012-RIZ004-006-007-MAZ004-011-015-221300-
SOUTHERN NEW ENGLAND
 IN CT

CITY           SKY/WX    TMP DP  RH WIND       PRES   REMARKS
Bradley INTL   CLOUDY    35  33  92 S7        30.03F WCI  29
Hartford       MOCLDY    36  33  89 CALM      30.04F
Danbury        CLOUDY    39  33  79 CALM      30.04S
Wtrbury/Oxford MOCLDY    37  30  75 SW5       30.04S WCI  34
Bridgeport     CLOUDY    41  36  82 SW3       30.06R
Meriden        PTCLDY    36  32  85 CALM      30.05S
New Haven      CLOUDY    39  37  92 S3        30.05S
Chester          N/A     39  37  93 SW5       30.04S
Groton         CLOUDY    40  38  93 SW5       30.05S
Wilimantic     CLOUDY    36  32  85 NE3       30.05S

 IN RI

CITY           SKY/WX    TMP DP  RH WIND       PRES   REMARKS
Providence     CLOUDY    40  35  83 SW8       30.05S WCI  34
Block Island   CLOUDY    43  40  89 SW12      30.07R
Westerly       MOCLDY    42  37  82 SW5       30.07R
 IN MA

CITY           SKY/WX    TMP DP  RH WIND       PRES   REMARKS
Boston         CLOUDY    40  34  79 SW9       30.02F WCI  34
Worcester      CLOUDY    33  30  88 SW9       29.98F WCI  25
Westfield      CLOUDY    32  30  92 CALM      30.02F
Provincetown   CLOUDY    39  36  89 S10       30.05S WCI  32
Nantucket      CLOUDY    40  36  86 S7        30.07S
$$

ANZ330-335-338-340-345-350-353-355-221300-
COASTAL MARINE OBSERVATIONS


STATION/POSITION TIME  SKY/WX   TEMP    WIND        PRES    VSBY  WAVE
                                AIR SEA DIR/SP/G                  HT/PER
                 (UTC)          (F)     (DEG/KT/KT) (MB)    (MI)  (FT/S)
NY HARB ENTRANCE 1050            42 42  210/  4/  6 1017.9          2/ 8
20 S FIRE ISLAND 1150            43 43  220/  4/  4 1018.0          2/ 8
GREAT SOUTH BAY  NOT AVBL
23 SSW MONTAUK P 1050            45 46              1018.2          3/ 7
15 E BARNEGAT LI 1130               42                N/A           2/ 6
HUDSON CANYON    1050               49              1018.6          3/ 9
KINGS POINT      1148            41 38              1017.5
EXECUTION ROCKS  NOT AVBL
CENTRAL LI SOUND 1115            40     230/  6/  8   N/A           0
EASTERN LI SOUND NOT AVBL
ROBBINS REEF     1148            41     180/  7/  8 1017.9
$$


>>>>>>>>>>>>>>>>>>>>>>>>>>>> KEY <<<<<<<<<<<<<<<<<<<<<<<<<<<
>                                                          <
>     SKY/WX - Sky Condition/Present Weather               <
>     TMP    - Temperature in Fahrenheit                   <
>     DP     - Dew Point in Fahrenheit                     <
>     RH     - Relative Humidity in Percent                <
>     WIND   - Direction (from) and Speed in MPH           <
>     PRES   - Mean Sea Level Pressure (inches of Hg)      <
>     WCI    - Wind Chill Index                            <
>     VSB    - VISIBILITY IN MILES                         <
>     HX     - HEAT INDEX                                  <
>     TC     - TEMPERATURE IN CELSIUS                      <
>     VRB    - VARIABLE WIND DIRECTION                     <
>                                                          <
>>>>>>>>>>>>>>>>>>>>>>>>>>>> KEY <<<<<<<<<<<<<<<<<<<<<<<<<<<



USA.gov is the U.S. government's official web portal to all federal, state and local government web resources and services.